www.pogodaiklimat.ru

Погода и климат >> Архив погоды >> Узбекистан >> Сырдарья


АРХИВ ПОГОДЫ в Сырдарье

Время (UTC), дата Ветер
(напр.,м/с)
 
Видим.   Явления Облачность Т
(С)
Тd
(С)
f
(%)
Тe
(С)
Тes
(С)
Комфортность P
(гПа)
Po
(гПа)
Тmin
(С)
Tmax
(С)
R
(мм)
R24
(мм)
S
(см)
09 19.06 З 2 10 км 10/3 600 м
[Cu hum Ac lent Ci fib]
+31.8 +8.9 24 +31 +37 жарко 1005.6 976.5
12 19.06 ЮЗ 2 10 км 10/4 600 м
[Cb cap Ac lent Ci fib]
+32.6 +6.7 20 +31 +33 жарко 1005.3 976.3
15 19.06 ЮЗ 2 10 км 5/3 600 м
[Cu hum Ci fib]
+28.7 +11.9 35 +30 +30 жарко 1005.8 976.4 +33.5
18 19.06 С 1 10 км 3/0
[Ci fib]
+22.0 +13.9 60 +25 +25 комфорт 1006.4 976.4 +33.5
21 19.06 С 2 10 км 3/0
[Ci fib]
+20.4 +10.7 54 +23 +23 комфорт 1006.7 976.5
00 20.06 СВ 1 10 км 4/0
[Ac lent Ci fib]
+18.5 +12.0 66 +20 +20 1007.1 976.7
03 20.06 Ю 2 10 км 8/0
[Ac lent Ci fib]
+23.5 +12.3 49 +25 +29 комфорт 1007.7 977.7
06 20.06 ЮЗ 3 10 км 3/0
[Ci fib]
+32.0 +13.7 33 +33 +48 жарко 1006.8 977.7 +17.2
09 20.06 З 2 10 км ясно +34.1 +10.9 24 +33 +51 опасность
солнечного
удара
1005.6 976.8
12 20.06 З 2 10 км ясно +34.4 +5.1 16 +32 +38 жарко 1005.0 976.1
15 20.06 штиль 0 10 км ясно +29.8 +11.3 32 +30 +30 жарко 1005.5 976.2 +34.9
18 20.06 штиль 0 10 км ясно +21.5 +10.2 49 +23 +23 комфорт 1006.4 976.3 +34.9
21 20.06 штиль 0 10 км ясно +18.9 +10.4 58 +20 +20 1006.3 975.9
00 21.06 В 1 10 км ясно +17.2 +12.5 74 +18 +18 1006.9 976.4 +1.4
03 21.06 Ю 2 10 км ясно +24.5 +15.2 56 +27 +34 жарко 1006.8 977.0
06 21.06 Ю 2 10 км ясно +32.9 +13.2 30 +34 +52 опасность
солнечного
удара
1005.9 977.0 +16.8
09 21.06 З 2 10 км 4/3 600 м
[Cu med, cong Ci fib]
+35.9 +9.4 20 +35 +47 очень
жарко
1004.3 975.6
12 21.06 З 2 10 км 3/0
[Ci fib]
+36.7 +9.4 19 +35 +41 очень
жарко
1003.5 974.9
15 21.06 ЮЗ 1 10 км 3/3 600 м
[Cu med, cong]
+30.2 +14.2 38 +32 +32 жарко 1004.2 975.0 +37.1
18 21.06 СЗ 1 10 км 3/3 600 м
[Cu med, cong]
+25.3 +13.6 48 +27 +27 жарко 1005.2 975.5 +37.1
21 21.06 С 2 10 км 10/3 600 м
[Cu med, cong]
+25.3 +7.6 32 +25 +25 комфорт 1005.0 975.2
00 22.06 С 1 10 км 4/4 600 м
[Cu med, cong]
+18.3 +11.1 63 +20 +20 1006.7 976.3
03 22.06 ЮЗ 2 10 км 4/4 600 м
[Cu med, cong]
+23.6 +12.4 49 +25 +29 комфорт 1007.5 977.5
06 22.06 СВ 2 10 км 4/0
[Ac lent Ci fib]
+31.6 +14.0 34 +33 +46 жарко 1007.4 978.2 +18.0
09 22.06 З 3 10 км 5/3 600 м
[Cu med, cong Ci fib]
+35.7 +9.9 21 +35 +44 очень
жарко
1005.3 977.5
12 22.06 З 4 10 км 6/0
[Ac lent Ci fib]
+35.0 +8.9 20 +33 +36 жарко 1006.1 977.3
15 22.06 СЗ 1 10 км 3/0
[Ac lent Ci fib]
+31.0 +11.4 30 +31 +31 жарко 1007.3 978.1 +36.6
18 22.06 С 2 10 км 3/0
[Ci fib]
+25.4 +9.2 36 +26 +26 жарко 1008.7 978.9 +36.6
21 22.06 С 2 10 км 3/0
[Ci fib]
+22.9 +9.2 42 +24 +24 комфорт 1008.8 978.7
00 23.06 З 1 10 км ясно +17.3 +10.6 65 +18 +18 1010.1 979.5 +1.5
03 23.06 З 1 10 км ясно +25.1 +14.4 51 +28 +35 жарко 1010.5 980.6
06 23.06 Ю 2 10 км ясно +32.4 +15.6 36 +35 +53 опасность
солнечного
удара
1009.2 980.2 +16.7
09 23.06 С 2 10 км ясно +34.6 +8.1 20 +33 +51 опасность
солнечного
удара
1008.6 979.7
12 23.06 ЮВ 1 10 км 4/0
[Ac lent Ci fib]
+35.6 +6.4 17 +33 +38 жарко 1007.7 978.9
15 23.06 штиль 0 10 км 5/3 600 м
[Cu hum Ci fib]
+29.7 +15.9 43 +33 +33 душно 1008.4 979.1 +36.7
18 23.06 С 1 10 км 3/3 600 м
[Cu hum]
+26.2 +13.7 46 +28 +28 жарко 1008.2 979.5 +36.7
21 23.06 В 2 10 км 3/0
[Ci fib]
+22.6 +14.1 59 +26 +26 жарко 1009.3 979.2
00 24.06 С 2 10 км 5/0
[Ci fib]
+20.9 +13.4 62 +24 +24 комфорт 1010.1 979.9
03 24.06 В 2 10 км 5/0
[Ci fib]
+27.1 +16.4 52 +31 +36 душно 1010.3 980.6
06 24.06 Ю 2 10 км 8/0
[Ci fib]
+32.6 +15.1 35 +35 +50 душно 1010.4 981.3 +18.4
09 24.06 З 2 10 км 5/0
[Ci fib]
+35.6 +13.1 26 +36 +52 опасность
солнечного
удара
1009.4 980.5
12 24.06 штиль 0 10 км 4/0
[Ci fib]
+36.1 +16.0 30 +38 +45 очень
душно
1008.2 979.5
15 24.06 Ю 1 10 км 8/0
[Ci fib]
+30.1 +16.1 43 +33 +33 душно 1008.9 979.7 +37.1
18 24.06 ЮЗ 1 10 км 4/0
[Ci fib]
+26.1 +13.5 46 +28 +28 жарко 1009.4 979.7 +37.1
21 24.06 ЮВ 2 10 км 3/0
[Ci fib]
+20.8 +13.7 64 +24 +24 комфорт 1009.3 979.1
00 25.06 В 1 10 км ясно +19.1 +14.3 74 +21 +21 комфорт 1009.9 979.5 +1.6
03 25.06 В 2 10 км ясно +24.2 +14.9 56 +27 +33 жарко 1009.7 979.8
06 25.06 Ю 2 10 км ясно +31.6 +14.7 36 +34 +52 опасность
солнечного
удара
1009.0 979.9 +19.0
09 25.06 СЗ 1 10 км 3/0
[Ci fib]
+36.6 +13.0 24 +37 +56 опасность
солнечного
удара
1007.9 979.2
12 25.06 З 2 10 км 4/0
[Ci fib]
+36.6 +11.2 22 +36 +41 очень
жарко
1007.1 978.4
15 25.06 С 1 10 км 4/0
[Ci fib]
+32.3 +19.8 48 +38 +38 очень
душно
1007.1 978.1 +37.7
18 25.06 ЮВ 1 10 км 3/0
[Ci fib]
+24.5 +15.4 57 +27 +27 жарко 1007.9 978.1 +37.7
21 25.06 С 1 10 км 5/0
[Ac lent Ci fib]
+20.8 +15.4 71 +25 +25 комфорт 1007.1 977.0
00 26.06 В 1 10 км 3/0
[Ci fib]
+18.6 +15.4 82 +21 +21 комфорт 1007.3 977.0
03 26.06 штиль 0 10 км ясно +27.3 +15.6 49 +30 +39 душно 1006.8 977.3
06 26.06 С 1 10 км ясно +34.4 +16.3 34 +37 +58 опасность
солнечного
удара
1005.4 976.7 +18.2

 

Местоположение метеостанции Сырдарья (Сырдарьинская область, Узбекистан): широта 40.82 долгота 68.68 высота над уровнем моря 264 м.

В архиве по умолчанию представлена погода в Сырдарье за последнюю неделю. Архивные данные за месяц целиком и за предыдущие месяцы, начиная с января 2011 года, Вы можете получить, выбрав интересующий диапазон дат из раскрывающегося списка и нажав кнопку "Ввод!".


*Определитесь, кто Вы:
робот инопланетянин человек

Внимание! Время в таблицах - всемирное. Для получения местного времени необходимо прибавить поправку, которая равна 5 ч.

Смотрите также архив погоды в соседних городах и на ближайших метеорологических станциях:

Погода в Жетысае (Южно-Казахстанская область, Казахстан) (30 км)
Погода в Каунчи (Ташкентская область, Узбекистан) (39 км)
Погода в Дустлике (Джизакская область, Узбекистан) (55 км)
Погода в Туябугузе (Ташкентская область, Узбекистан) (60 км)
Погода в Янгиере (Сырдарьинская область, Узбекистан) (68 км)
Погода в Ташкенте (Ташкентская область, Узбекистан) (70 км)
Погода в Шардаре (Южно-Казахстанская область, Казахстан) (84 км)
Погода в Западном Арнасае (Джизакская область, Узбекистан) (85 км)
Погода в Бекабаде (Ташкентская область, Узбекистан) (85 км)
Погода в Галляарале (Джизакская область, Узбекистан) (96 км)

Пояснения к столбцам:

Ветер - указаны скорость ветра в м/с - средняя за 10 мин, порывы в срок и между сроками (в фигурных скобках) и направление, откуда дует ветер: С - северный, СВ - северо-восточный, В - восточный, ЮВ - юго-восточный, Ю - южный, ЮЗ - юго-западный, З - западный, СЗ - северо-западный.
Видимость - горизонтальная дальность видимости в метрах или километрах. При видимости от 1 до 10 км при отсутствии осадков обычно наблюдается дымка, при ухудшении видимости до 1 км и менее - туман. В сухую погоду видимость может ухудшаться дымом, пылью или мглою.
Явления - указаны атмосферные явления, наблюдавшиеся в срок или в последний час перед сроком; фигурными скобками обозначены явления, наблюдавшиеся между сроками (за 1-3 часа до срока); квадратными скобками обозначены град или гололедные отложения с указанием их диаметра в мм.
Облачность - указаны через наклонную черту общая и нижняя облачность в баллах и высота нижней границы облаков в метрах; квадратными скобками обозначены формы облаков: Ci - перистые, Cs - перисто-слоистые, Cc - перисто-кучевые, Ac - высококучевые, As - высокослоистые, Sc - слоисто-кучевые, Ns - слоисто-дождевые, Cu - кучевые, Cb - кучево-дождевые. Подробнее классификацию облаков см. в Атласе облаков (PDF).
T - Температура воздуха - температура, измеренная на высоте 2 м над землей.
Td - Температура точки росы - температура, при понижении до которой содержащийся в воздухе водяной пар достигнет насыщения.
f - Относительная влажность воздуха - влажноcть воздуха, измеренная на высоте 2 м над землей.
Te - Эффективная температура - температура, которую ощущает одетый по сезону человек в тени. Характеристика душности погоды. При расчете учитывается влияние влажности воздуха и скорости ветра на теплоощущения человека.
Tes - Эффективная температура на солнце - температура, которую ощущает человек, с поправкой на солнечный нагрев. Характеристика знойности погоды. Зависит от высоты солнца над горизонтом, облачности и скорости ветра. Ночью, в пасмурную погоду, а также при ветре 12 м/с и более поправка равна нулю.
P - Атмосферное давление - приведенное к уровню моря атмосферное давление.
Po - Атмосферное давление - измеренное на уровне метеостанции атмосферное давление.
Tmin - Минимальная температура - минимум температуры воздуха на высоте 2 м над землей.
Tmax - Максимальная температура - максимум температуры воздуха на высоте 2 м над землей.
R - Количество осадков - Количество выпавших осадков за период времени, мм. При наведении курсора мыши на число - период времени, за который выпало указанное количество осадков.
R24 - Количество осадков - Количество выпавших осадков за 24 часа, мм.
S - Снежный покров - Высота снежного покрова, см. При наведении курсора мыши на число - состояние снежного покрова и степень покрытия местности в баллах.